Content
SEND FEEDBACK

Daily
Averages
Monthly
Summary
United States of America

RIDGEWAY, SOUTH CAROLINA


Home > North America > United States > South Carolina
Elevation: 23 feet     Latitude: 34 20N     Longitude: 080 42W

WEATHER
 
SELECT A DAY
Number of Records: 124,793;   Date Range: 12/8/08 - 4/16/14
 
SHARE

PRINT THIS DATA

[ ← Previous Day ]
WEATHER ALMANAC - FEBRUARY 13, 2013
[ Next Day → ]
[ °C ]   °F
Weather ElementAverageHighLow
Temperature49.3 °F53.6 °F (2:55 pm)46.4 °F (4:15 am)
Dewpoint47.1 °F53.6 °F (2:55 pm)42.8 °F (11:15 pm)
Humidity92.7 %100 % (1:15 am)77 % (5:35 pm)
Barometer29.80 in29.92 in (12:35 am)29.69 in (12:35 pm)
Wind Speed6.1 mph15 mph (3:15 pm)
Wind Gust20.7 mph (3:35 pm)
Weather ElementAverage
Visibility6 mi
Wind DirectionSSE (146.6 °)

Weather ElementTotal
Precipitation0.14 in
Heating Degree Days15 (Base 65)
Averaged from 70 records on February 13, 2013
WEATHER CONDITIONS BREAKOUT
WIND DIRECTION BREAKOUT
WEATHER BY HOUR - FEBRUARY 13, 2013
[ °C ]   °F
Local TimeTemperatureDewpointHumidityBarometerVisibilityWind DirectionWind SpeedGust SpeedPrecipitationEventsConditions
12:35 AM50.0 °F48.2 °F94 %29.92 in10.0 miNE (50°)4.6 mph0.00 inOvercast
12:55 AM50.0 °F48.2 °F94 %29.90 in10.0 miENE (60°)5.8 mph0.00 inRainLight Rain
1:15 AM48.2 °F48.2 °F100 %29.88 in6.0 miENE (70°)6.9 mph0.00 inOvercast
1:35 AM48.2 °F46.4 °F93 %29.89 in6.0 miCalm0.00 inOvercast
1:55 AM48.2 °F46.4 °F93 %29.88 in4.0 miEast (80°)4.6 mph0.00 inRainLight Rain
2:15 AM48.2 °F46.4 °F93 %29.88 in5.0 miEast (90°)4.6 mph0.00 inOvercast
2:35 AM48.2 °F46.4 °F93 %29.86 in6.0 miEast (90°)6.9 mph0.01 inRainLight Rain
2:55 AM48.2 °F46.4 °F93 %29.83 in3.0 miEast (100°)4.6 mph0.08 inRainLight Rain
3:15 AM48.2 °F46.4 °F93 %29.83 in10.0 miNE (50°)3.5 mph0.00 inOvercast
3:35 AM48.2 °F46.4 °F93 %29.84 in10.0 miENE (70°)5.8 mph0.00 inOvercast
3:55 AM48.2 °F46.4 °F93 %29.83 in9.0 miNE (40°)4.6 mph0.00 inOvercast
4:15 AM46.4 °F46.4 °F100 %29.83 in3.0 miENE (70°)3.5 mph0.00 inLight Drizzle
4:35 AM46.4 °F46.4 °F100 %29.84 in1.8 miCalm0.01 inRainLight Rain
4:55 AM46.4 °F46.4 °F100 %29.84 in1.5 miNE (40°)3.5 mph0.04 inRainLight Rain
5:15 AM46.4 °F46.4 °F100 %29.82 in2.0 miEast (80°)4.6 mph0.00 inLight Drizzle
5:35 AM46.4 °F46.4 °F100 %29.79 in4.0 miEast (90°)8.1 mph17.3 mph0.00 inOvercast
5:55 AM46.4 °F44.6 °F93 %29.82 in10.0 miENE (60°)5.8 mph0.00 inOvercast
6:15 AM46.4 °F44.6 °F93 %29.79 in7.0 miENE (70°)6.9 mph0.00 inOvercast
6:35 AM46.4 °F46.4 °F100 %29.80 in4.0 miENE (60°)4.6 mph0.00 inOvercast
6:55 AM46.4 °F46.4 °F100 %29.80 in2.0 miENE (60°)5.8 mph0.00 inOvercast
7:15 AM46.4 °F46.4 °F100 %29.79 in1.5 miNE (50°)5.8 mph0.00 inOvercast
7:35 AM46.4 °F46.4 °F100 %29.80 in1.2 miNE (50°)4.6 mph0.00 inOvercast
7:55 AM46.4 °F46.4 °F100 %29.80 in1.8 miNE (50°)4.6 mph0.00 inOvercast
8:15 AM46.4 °F46.4 °F100 %29.81 in1.5 miNNE (20°)3.5 mph0.00 inOvercast
8:35 AM46.4 °F46.4 °F100 %29.82 in1.5 miEast (80°)4.6 mph0.00 inOvercast
8:55 AM46.4 °F46.4 °F100 %29.81 in1.5 miENE (70°)3.5 mph0.00 inOvercast
9:15 AM46.4 °F46.4 °F100 %29.80 in1.8 miESE (120°)6.9 mph0.00 inOvercast
9:35 AM46.4 °F46.4 °F100 %29.77 in1.2 miEast (100°)4.6 mph0.00 inOvercast
9:55 AM46.4 °F46.4 °F100 %29.80 in2.0 miESE (120°)4.6 mph0.00 inOvercast
10:15 AM48.2 °F48.2 °F100 %29.79 in1.5 miCalm0.00 inOvercast
10:35 AM48.2 °F48.2 °F100 %29.77 in1.2 miSE (130°)4.6 mph0.00 inOvercast
10:55 AM48.2 °F48.2 °F100 %29.78 in1.0 miCalm0.00 inOvercast
11:15 AM48.2 °F48.2 °F100 %29.76 in1.0 miCalm0.00 inOvercast
11:35 AM48.2 °F48.2 °F100 %29.77 in0.8 miSouth (190°)3.5 mph0.00 inOvercast
11:55 AM48.2 °F48.2 °F100 %29.72 in0.5 miSE (130°)3.5 mph0.00 inFogFog
12:15 PM48.2 °F48.2 °F100 %29.74 in0.5 miCalm0.00 inFogFog
12:35 PM48.2 °F48.2 °F100 %29.69 in0.5 miESE (120°)5.8 mph0.00 inFogFog
12:55 PM50.0 °F50.0 °F100 %29.72 in0.5 miSSW (210°)3.5 mph0.00 inFogFog
1:15 PM50.0 °F50.0 °F100 %29.70 in0.5 miCalm0.00 inFogFog
1:55 PM51.8 °F51.8 °F100 %29.70 in1.0 miCalm0.00 inOvercast
2:15 PM51.8 °F51.8 °F100 %29.72 in1.0 miWSW (240°)6.9 mph0.00 inOvercast
2:35 PM51.8 °F51.8 °F100 %29.70 in4.0 miWSW (240°)8.1 mph0.00 inOvercast
2:55 PM53.6 °F53.6 °F100 %29.71 in7.0 miWSW (240°)10.4 mph0.00 inOvercast
3:15 PM53.6 °F51.8 °F94 %29.72 in8.0 miWest (270°)15.0 mph18.4 mph0.00 inOvercast
3:35 PM53.6 °F51.8 °F94 %29.71 in10.0 miWSW (240°)11.5 mph20.7 mph0.00 inOvercast
3:55 PM53.6 °F50.0 °F88 %29.72 in10.0 miWSW (250°)10.4 mph20.7 mph0.00 inOvercast
4:15 PM53.6 °F48.2 °F82 %29.73 in10.0 miWest (260°)12.7 mph19.6 mph0.00 inMostly Cloudy
4:35 PM53.6 °F48.2 °F82 %29.73 in10.0 miWest (260°)12.7 mph17.3 mph0.00 inPartly Cloudy
4:55 PM53.6 °F48.2 °F82 %29.73 in10.0 miWSW (240°)12.7 mph0.00 inClear
5:15 PM51.8 °F46.4 °F82 %29.74 in10.0 miWSW (240°)9.2 mph18.4 mph0.00 inClear
5:35 PM53.6 °F46.4 °F77 %29.76 in10.0 miWSW (250°)11.5 mph0.00 inClear
5:55 PM51.8 °F46.4 °F82 %29.75 in10.0 miSW (230°)8.1 mph0.00 inClear
6:15 PM51.8 °F46.4 °F82 %29.76 in10.0 miSW (230°)9.2 mph16.1 mph0.00 inClear
6:35 PM51.8 °F46.4 °F82 %29.76 in10.0 miSW (220°)5.8 mph0.00 inClear
6:55 PM51.8 °F46.4 °F82 %29.77 in10.0 miWSW (240°)9.2 mph0.00 inClear
7:15 PM51.8 °F46.4 °F82 %29.77 in10.0 miWSW (240°)8.1 mph0.00 inClear
7:35 PM51.8 °F46.4 °F82 %29.78 in10.0 miWSW (240°)9.2 mph0.00 inClear
7:55 PM51.8 °F46.4 °F82 %29.78 in10.0 miWSW (240°)8.1 mph0.00 inClear
8:15 PM51.8 °F46.4 °F82 %29.79 in10.0 miWSW (250°)8.1 mph0.00 inClear
8:35 PM51.8 °F46.4 °F82 %29.80 in10.0 miWest (260°)6.9 mph0.00 inClear
8:55 PM50.0 °F46.4 °F87 %29.81 in10.0 miWest (260°)4.6 mph0.00 inClear
9:15 PM50.0 °F46.4 °F87 %29.82 in10.0 miWSW (250°)6.9 mph0.00 inClear
9:35 PM50.0 °F46.4 °F87 %29.83 in10.0 miWest (260°)6.9 mph0.00 inClear
9:55 PM50.0 °F46.4 °F87 %29.85 in10.0 miWest (270°)6.9 mph0.00 inClear
10:15 PM50.0 °F46.4 °F87 %29.85 in10.0 miWest (270°)5.8 mph0.00 inScattered Clouds
10:35 PM50.0 °F44.6 °F82 %29.85 in10.0 miWest (280°)9.2 mph0.00 inPartly Cloudy
10:55 PM48.2 °F44.6 °F87 %29.86 in10.0 miWest (280°)10.4 mph0.00 inClear
11:15 PM48.2 °F42.8 °F82 %29.87 in10.0 miWest (280°)9.2 mph0.00 inClear
11:35 PM48.2 °F42.8 °F82 %29.88 in10.0 miWest (280°)8.1 mph0.00 inPartly Cloudy
11:55 PM48.2 °F42.8 °F82 %29.89 in10.0 miWest (280°)6.9 mph0.00 inClear
Hourly data recorded from KCDN, located 8.28 miles away from Ridgeway, South Carolina







STORIES FROM OUR PARTNERS